Flag for Germany Weather past 2 weeks in Bitterfeld-Wolfen, Saxony-Anhalt, Germany

Now
25 °F

Clear.


Feels Like: 16 °F
Forecast: 21 / 28 °F
Wind: 8 mph from South

Location: Leipzig-Schkeuditz

Current Time: Dec 27, 2014 at 2:49:32 AM

Latest Report: Dec 27, 2014 at 2:20 AM


Visibility: 10 mi

Pressure: 30.09 "Hg

Humidity: 100%

Dew point: 25 °F

Location of Bitterfeld-WolfenLocation

Historic Weather in Bitterfeld-Wolfen — Graph

°F

Bitterfeld-Wolfen temperature yesterday

Maximum temperature yesterday: 34 °F (at 12:20 AM)
Minimum temperature yesterday: 25 °F (at 10:20 PM)
Average temperature yesterday: 31 °F

Past Weeks' High & Low Weather Summary

 TemperatureHumidityPressure
High54 °F (Dec 18, 9:50 PM)100% (Dec 13, 8:50 PM)30.33 "Hg (Dec 13, 8:50 PM)
Low25 °F (Dec 26, 10:20 PM)65% (Dec 26, 1:50 PM)29.45 "Hg (Dec 12, 7:20 PM)
Average43 °F86%29.93 "Hg
* Reported Dec 12 1:20 AM — Dec 27 1:50 AM, Bitterfeld-Wolfen, Weather by CustomWeather, © 2014

Note: Actual official high and low records may vary slightly from our data, if they occured in-between our weather recording intervals... More about our weather records

Advertising

Bitterfeld-Wolfen weather history for previous 24 hours

 ConditionsComfort  
Time TempWeatherWind HumidityBarometerVisibility
1:50 AM
Dec 27
25 °FClear.7 mph100%30.12 "Hg10 mi
1:20 AM25 °FClear.8 mph100%30.12 "Hg10 mi
12:50 AM27 °FPassing clouds.7 mph100%30.15 "HgN/A
12:20 AM25 °FClear.8 mph93%30.15 "Hg10 mi
11:50 PM
Dec 26
25 °FClear.8 mph93%30.18 "Hg10 mi
11:20 PM25 °FClear.7 mph93%30.18 "Hg10 mi
10:20 PM25 °FClear.6 mph93%30.21 "Hg10 mi
9:50 PM27 °FClear.6 mph86%30.24 "Hg10 mi
9:20 PM27 °FClear.7 mph86%30.24 "Hg10 mi
8:50 PM28 °FClear.7 mph86%30.24 "Hg10 mi
8:20 PM28 °FClear.6 mph86%30.27 "Hg10 mi
7:50 PM28 °FClear.5 mph86%30.27 "Hg10 mi
7:20 PM28 °FClear.5 mph93%30.27 "Hg10 mi
6:50 PM30 °FClear.1 mph86%30.27 "Hg10 mi
6:20 PM30 °FClear.2 mph86%30.30 "Hg10 mi
5:20 PM30 °FClear.2 mph86%30.30 "Hg10 mi
4:50 PM30 °FClear.3 mph80%30.30 "Hg10 mi
4:20 PM30 °FPassing clouds.5 mph80%30.30 "HgN/A
3:50 PM30 °FScattered clouds.7 mph80%30.30 "HgN/A
3:20 PM32 °FPassing clouds.7 mph75%30.30 "HgN/A
2:50 PM32 °FScattered clouds.8 mph75%30.30 "HgN/A
2:20 PM34 °FScattered clouds.12 mph70%30.30 "HgN/A
1:50 PM34 °FScattered clouds.12 mph65%30.30 "HgN/A
1:20 PM32 °FScattered clouds.9 mph75%30.30 "HgN/A
12:50 PM32 °FScattered clouds.9 mph75%30.30 "HgN/A
12:20 PM32 °FPartly sunny.13 mph75%30.33 "HgN/A
11:50 AM32 °FPartly sunny.14 mph80%30.33 "HgN/A
11:20 AM34 °FPassing clouds.12 mph81%30.33 "HgN/A
10:50 AM32 °FPassing clouds.9 mph87%30.33 "HgN/A
10:20 AM32 °FScattered clouds.8 mph80%30.33 "HgN/A
9:50 AM32 °FPartly sunny.7 mph87%30.33 "HgN/A
9:20 AM32 °FPartly sunny.6 mph87%30.33 "HgN/A
8:50 AM32 °FPartly sunny.9 mph93%30.30 "HgN/A
8:20 AM32 °FLight snow. Partly sunny.8 mph93%30.30 "HgN/A
7:50 AM32 °FLight snow. Partly cloudy.10 mph93%30.30 "HgN/A
7:20 AM32 °FLight snow. Passing clouds.9 mph93%30.30 "HgN/A
6:50 AM32 °FLight snow. Partly cloudy.9 mph100%30.30 "HgN/A
6:20 AM32 °FLight snow. Partly cloudy.7 mph100%30.27 "HgN/A
5:50 AM32 °FLight snow. Partly cloudy.7 mph100%30.27 "HgN/A
5:20 AM32 °FLight snow. Partly cloudy.8 mph100%30.27 "HgN/A
4:50 AM32 °FLight snow. Passing clouds.13 mph100%30.27 "HgN/A
3:50 AM34 °FLight snow. Passing clouds.12 mph100%30.27 "HgN/A
3:20 AM34 °FLight snow. Passing clouds.13 mph100%30.27 "HgN/A
2:50 AM34 °FLight snow. Passing clouds.15 mph100%30.27 "HgN/A
2:20 AM34 °FLight snow. Passing clouds.14 mph100%30.24 "HgN/A
Weather by CustomWeather, © 2014

See weather overviewHow to use our weather pages